Meteo Giornale » Osservazioni meteo Gran Bretagna » Shoreham

ore: 14:50 - Osservazioni Meteo Shoreham
Lat. 50° 50' N Lon. 0° 17' W Alt. 2 metri s.l.m.

poco_nuvoloso Europe/London

19 °C

Poco Nuvoloso

Temp. 24 Ore

12 °C

19 °C

Sud-Ovest

25.9 Km/h

Dew point 15 °C

Umidità 77 %

Visibilità  10 Km

Il sole sorge alle ore 06:49

Il sole tramonta alle ore 18:56

Data e Ora Cielo e Fenomeni T °C DP °C Um. % Pres. hPa Vis. km Vento km/h
Oggi h: 14:50 poco_nuvoloso Poco Nuvoloso 19 15 77 1016 10 SO 25.9
Oggi h: 13:50 sereno Sereno 19 14 72 1016 10 S/SO 25.9
Oggi h: 13:20 sereno Sereno 19 14 72 1016 10 S/SO 24
Oggi h: 12:50 sereno Sereno 19 14 72 1016 10 S/SO 24
Oggi h: 12:20 poco_nuvoloso Poco Nuvoloso 19 14 72 1017 10 S/SO 25.9
Oggi h: 11:50 poco_nuvoloso Poco Nuvoloso 19 13 68 1017 10 O 16.7
Oggi h: 11:20 poco_nuvoloso Poco Nuvoloso 19 13 68 1017 10 O 16.7
Oggi h: 10:50 poco_nuvoloso Poco Nuvoloso 18 14 77 1017 10 O/SO 20.3
Oggi h: 10:20 poco_nuvoloso Poco Nuvoloso 18 14 77 1017 10 O/SO 20.3
Oggi h: 09:50 poco_nuvoloso Poco Nuvoloso 17 14 82 1017 10 O 16.7
Oggi h: 09:20 poco_nuvoloso Poco Nuvoloso 16 14 87 1017 10 O/SO 14.8
Oggi h: 08:20 poco_nuvoloso Poco Nuvoloso 15 15 100 1017 10 N 1.8
Oggi h: 07:50 poco_nuvoloso Poco Nuvoloso 12 12 100 1017 10 N 5.5
Ieri h: 19:50 sereno Sereno 17 16 93 1019 10 O/SO 20.3
Ieri h: 19:20 poco_nuvoloso Poco Nuvoloso 17 16 93 1019 10 O/SO 20.3
Ieri h: 18:50 poco_nuvoloso Poco Nuvoloso 18 16 88 1019 10 O/SO 20.3
Ieri h: 18:20 nuvoloso Nuvoloso 18 16 88 1019 10 O/SO 27.8
Ieri h: 17:20 nuvoloso Nuvoloso 19 16 82 1019 10 O/SO 16.7
Ieri h: 16:50 nuvoloso Nuvoloso 19 16 82 1019 10 O/SO 22.2
Ieri h: 16:20 nuvoloso Nuvoloso 19 16 82 1019 10 O/SO 22.2
Ieri h: 15:50 nuvoloso Nuvoloso 19 15 77 1019 10 O/SO 25.9